Location: Cerezo de Arriba
(41.2389°N, 3.5585°W)
Time: 04:55:56
(UTC+00:00)

ERS-1 Rocket - Pass Details

Date: 19 May 2025
Orbit: 747 x 753 km, 98.2° (Epoch: 23 June)

Event Time Altitude Azimuth Distance (km) Brightness Sun altitude
Exits shadow 20:04:55 - 128° (SE) 2,464 4.9 -6.5°
Reaches altitude 10° 20:05:29 10° 125° (SE) 2,272 4.8 -6.6°
Maximum altitude 20:09:42 28° 67° (ENE) 1,383 4.1 -7.2°
Drops below altitude 10° 20:13:57 10° 9° (N) 2,285 5.8 -7.9°
Sets 20:16:30 0° 359° (N) 3,214 6.8 -8.3°
